sat.trackr.live / text

‹ back to catalog

STARLINK-32678

NORAD 62309 · 2024-239J

PAYLOAD ACTIVE UNKNOWN

§ Identity

Operator
Country
US
Launch date
2024-12-13
Launch site
AFWTR
Launch vehicle
Mass (kg)
RCS (m²)

Purposes: comms

External: N2YO · Heavens-Above · Gunter

§ Orbital elements

Epoch: 2026-05-25T02:43:51.930336Z

Period
94.04 min
Inclination
53.1589°
Eccentricity
0.0001705
Mean motion
15.31288264 rev/d
Perigee alt
470.8 km
Apogee alt
473.1 km
Semi-major
6,850.1 km
B*
1.4187e-3
RAAN
186.2366°
Arg perigee
14.1622°
Mean anomaly
345.9427°
Rev number
8,126

§ Raw data

STARLINK-326781 62309U 24239J   26145.11379549  .00043353  00000+0  14187-2 0  99972 62309  53.1589 186.2366 0001705  14.1622 345.9427 15.31288264 81265

JSON: /api/v1/satellites/62309 · /tle

For live sub-satellite position, see the globe view (requires WebGL).

§ Visibility from observer

Set your observer location to see the next 7 days of passes ≥ 10°. The values pass through the URL so the page stays shareable.

No JS? Fill the form by hand. The geolocation button needs JavaScript.